Wind_Speed
13 9 7 5 2 5 13 14 14 17 14 13 12 9 8 12 7 4 4 7 9 12 9 10 9 9 8 7 7 7 7 7 7 8 9 10 10 11 12 14 14 14 14 15 15 17 17 17 18
15 11 9 4 3 3 11 14 14 9 13 13 12 11 12 14 12 8 6 6 10 11 10 9 9 9 7 6 6 7 7 8 8 8 9 10 11 10 10 11 12 12 13 15 15 15 15 15 16
15 12 9 4 4 5 8 20 11 14 11 9 10 7 9 11 12 9 7 6 7 11 10 9 9 9 8 7 6 5 6 7 8 8 8 10 11 10 10 10 12 13 13 14 15 15 14 14 13
14 13 10 5 8 6 13 19 14 14 9 6 5 2 5 6 11 10 8 8 7 9 9 9 9 9 9 8 6 5 4 6 7 8 8 9 11 11 12 12 12 12 12 12 13 13 13 12 12
15 15 12 10 8 5 9 16 20 10 12 9 7 4 3 4 8 8 10 9 7 7 9 9 9 9 10 9 8 6 5 5 6 7 8 8 9 10 10 10 9 9 9 10 10 11 11 11 10
17 15 12 14 11 6 8 13 22 13 12 12 12 7 2 3 4 5 8 9 5 8 8 8 9 10 10 10 9 8 7 6 5 6 7 8 8 9 9 9 9 8 6 7 8 9 10 10 8
20 19 16 13 12 7 8 13 23 20 16 13 13 11 6 5 2 5 4 6 5 5 8 8 7 8 10 11 11 10 9 8 7 6 6 7 8 7 7 7 7 7 6 6 6 7 9 11 11
20 21 20 16 11 8 12 11 16 20 20 17 14 12 9 6 4 2 4 1 3 3 6 9 8 7 7 9 11 11 11 11 10 9 8 7 7 7 7 6 6 7 7 6 7 8 9 11 11
24 23 24 18 13 9 12 16 15 18 23 20 18 13 8 8 7 6 6 4 1 1 3 7 9 8 7 8 8 9 12 13 13 12 10 9 8 7 7 6 5 5 5 6 5 5 6 7 7
25 29 25 17 14 13 15 17 14 16 22 22 19 16 12 8 8 2 4 3 1 1 1 7 9 8 7 7 7 6 7 11 13 13 12 11 11 10 10 8 7 6 5 4 3 2 2 3 4
29 33 27 21 20 18 15 20 18 14 18 17 16 16 11 12 10 4 4 3 3 3 6 9 10 10 7 6 6 5 4 6 10 14 14 15 14 14 12 12 10 8 7 7 6 6 5 4 2
31 32 30 29 25 23 19 16 19 19 15 16 16 16 17 18 12 6 4 5 2 3 9 11 9 7 6 5 3 7 5 4 4 9 14 16 16 16 15 14 14 13 12 12 12 11 11 9 8
32 32 30 31 32 29 25 20 18 20 12 16 21 21 18 16 13 9 7 9 9 3 2 11 10 7 4 3 3 3 8 7 6 6 9 13 17 18 18 18 18 17 17 17 16 15 15 14 13
29 32 33 34 35 35 32 26 24 22 15 13 18 19 19 19 14 13 15 15 10 7 6 7 10 9 8 8 7 5 4 10 11 9 7 8 11 16 20 21 21 21 21 21 20 20 19 19 19
33 35 32 38 38 35 35 38 35 27 23 20 18 19 22 22 20 18 17 17 15 10 9 7 7 11 11 11 12 11 8 9 13 13 12 12 12 12 15 19 23 24 24 25 25 24 24 23 21
28 34 39 42 39 37 36 47 39 30 29 25 21 23 25 24 22 22 21 20 19 19 14 13 13 13 14 15 14 15 14 12 13 15 16 16 16 16 17 16 18 23 27 28 29 29 27 26 26
32 35 37 39 37 32 38 45 47 39 34 35 30 28 28 29 31 30 30 30 25 23 22 18 19 17 17 19 19 19 20 19 17 17 17 19 20 20 21 21 20 21 24 27 30 32 32 30 29
42 33 37 35 31 35 34 41 43 44 44 40 39 37 35 34 33 31 34 35 31 25 24 23 23 21 19 21 21 22 24 24 21 20 18 17 18 20 24 25 25 26 26 25 27 30 32 32 32
34 18 32 41 36 31 31 35 39 42 46 47 42 42 42 41 39 40 37 32 34 28 26 23 25 24 21 23 25 25 27 27 23 19 16 17 19 20 23 26 29 30 31 29 28 28 29 29 32
41 42 40 29 25 29 32 45 42 40 48 49 47 43 41 38 38 35 36 33 30 31 24 23 24 27 23 21 18 17 18 19 19 19 21 21 20 23 26 27 29 30 33 33 32 31 29 28 29
42 41 43 42 36 20 31 44 45 40 46 48 49 47 43 39 34 33 32 32 29 31 23 23 23 20 20 22 24 21 20 19 19 18 17 17 20 24 27 27 29 30 33 35 35 35 34 31 30
46 45 42 40 30 26 22 24 45 42 47 47 46 43 42 43 36 34 31 30 28 26 26 27 26 24 24 23 25 26 22 21 16 18 19 22 24 27 29 30 30 32 32 35 37 37 37 37 34
49 44 40 36 33 30 30 15 45 45 49 48 48 44 36 35 40 35 31 31 29 29 31 30 31 33 30 29 25 26 26 23 21 22 21 24 24 28 30 32 33 33 34 35 38 40 40 39 39
36 35 27 31 31 17 46 29 57 45 55 48 43 42 40 34 36 36 34 33 30 29 28 30 31 36 37 33 29 27 26 23 24 23 22 24 25 27 29 31 33 34 35 35 36 38 41 41 40
21 22 8 9 8 12 40 27 51 12 37 45 48 41 35 35 34 37 40 39 35 33 33 35 34 32 36 36 32 27 26 25 25 23 23 26 26 26 24 27 29 30 26 30 32 36 39 42 45
48 35 14 11 12 20 31 17 57 33 48 25 19 20 35 40 36 41 42 41 38 35 36 35 32 33 29 33 31 27 27 28 25 23 25 26 25 25 25 27 28 27 29 29 32 35 38 40 44
27 41 49 24 16 7 21 28 51 46 46 33 29 38 23 31 42 39 44 47 43 41 41 37 36 30 31 32 31 29 29 26 22 23 25 25 27 26 26 27 29 28 28 30 32 34 35 38 41
46 39 27 32 19 21 9 20 27 36 48 53 45 36 35 34 28 29 47 48 49 45 46 45 36 29 26 26 27 28 27 24 24 27 27 27 28 27 27 27 30 30 29 30 33 35 35 36 39
37 43 35 26 39 17 20 32 31 29 29 19 21 30 33 37 33 31 39 42 46 44 45 36 35 28 26 27 25 24 22 23 25 26 28 28 27 27 27 27 28 29 31 33 33 33 37 41 39
40 46 51 37 21 25 41 36 6 39 37 30 20 17 22 23 29 32 31 26 25 31 35 38 35 29 29 31 27 25 23 25 28 27 27 25 25 27 27 26 29 31 31 33 33 34 36 38 41
Wind_Direction
247 248 251 268 136 136 149 162 157 144 141 124 135 110 86 55 58 72 92 123 119 141 147 150 158 142 132 120 107 99 99 92 93 104 116 117 117 121 122 123 124 125 123 121 121 120 119 118 113
242 246 245 251 139 165 174 180 160 120 130 134 133 104 70 67 55 63 80 103 122 133 143 147 163 152 149 135 113 106 102 99 98 103 117 119 117 118 119 121 123 124 124 123 121 119 116 113 113
238 242 240 228 174 126 154 172 170 145 135 149 139 113 93 71 45 68 73 89 97 119 138 152 167 165 165 159 138 110 109 101 100 99 104 114 116 116 120 116 115 116 115 113 113 110 108 105 107
242 243 238 214 142 177 165 181 182 154 155 159 132 141 102 58 64 67 68 82 85 102 122 151 168 177 177 173 166 142 120 107 101 102 100 109 119 121 121 118 115 113 110 110 109 106 106 102 99
244 241 235 217 185 153 175 189 173 195 179 190 190 191 86 80 66 73 72 68 90 97 118 146 167 182 182 183 186 177 157 132 116 111 111 112 121 133 133 129 121 119 117 116 112 104 100 93 96
240 235 231 226 207 184 176 199 190 202 191 196 204 212 330 223 78 104 77 67 74 109 118 135 163 183 188 187 198 197 187 171 155 134 124 124 128 132 133 133 129 123 121 117 112 110 108 106 100
233 234 230 228 210 190 168 192 201 207 211 211 213 229 280 235 274 153 98 66 81 95 132 139 140 172 186 195 200 209 204 196 187 175 152 141 136 135 139 142 136 132 128 120 116 110 103 102 101
235 233 232 225 208 190 197 198 200 213 228 227 221 229 275 290 276 217 185 43 71 110 143 153 141 146 170 191 204 211 218 213 207 198 189 176 155 148 143 148 147 137 131 123 122 114 104 98 98
236 232 231 220 207 195 192 192 203 218 218 218 216 227 232 245 281 311 226 294 332 118 179 165 156 144 150 165 187 210 223 226 220 215 209 207 191 176 167 170 172 162 148 142 133 112 101 95 93
237 236 232 215 203 190 180 180 187 208 210 210 225 223 235 238 273 307 250 294 296 205 281 186 168 162 163 155 155 167 214 232 236 227 224 218 214 202 200 200 209 210 207 197 181 180 159 128 107
239 240 232 216 210 196 175 174 182 198 212 217 226 230 240 254 262 263 223 254 354 226 186 155 134 131 150 185 173 155 168 204 227 234 228 228 226 224 220 218 217 229 235 244 244 234 240 256 262
239 243 241 226 216 212 195 184 185 192 205 218 213 221 238 256 263 267 254 277 317 359 189 183 168 149 144 158 170 197 197 202 202 227 233 233 234 235 233 230 229 226 233 237 244 253 248 248 257
238 240 241 241 227 225 221 205 205 195 203 224 222 226 236 247 256 258 214 236 261 277 291 211 193 188 188 195 201 209 223 225 221 224 232 238 238 238 239 239 236 234 235 238 242 247 258 259 258
238 242 237 240 241 231 235 221 231 199 201 228 230 234 240 242 244 253 236 243 283 271 309 227 214 205 226 239 237 235 246 238 237 240 245 248 245 242 242 242 244 242 241 240 241 245 247 253 259
239 243 238 234 240 240 240 234 234 210 218 223 232 238 243 241 244 261 253 240 254 273 269 278 262 247 241 253 247 245 247 251 247 244 248 248 251 251 248 247 246 246 248 247 245 245 249 253 259
239 243 244 240 238 238 238 241 237 225 233 234 233 237 249 251 254 262 263 251 238 245 255 260 267 261 252 260 258 251 247 251 251 248 250 253 254 256 257 255 253 249 249 251 252 252 249 252 257
239 240 243 246 243 245 238 244 239 240 237 233 237 238 243 250 253 255 261 266 254 242 244 249 259 262 263 259 260 260 246 244 249 252 250 253 257 259 259 259 256 252 252 253 254 255 257 254 254
229 232 241 245 246 245 243 245 245 246 246 243 239 234 240 245 248 254 256 258 256 248 241 244 250 250 260 257 249 252 254 246 248 251 259 257 259 262 262 260 257 255 252 253 256 257 258 260 260
235 235 247 252 251 253 249 252 245 245 247 248 247 246 245 245 246 255 253 250 252 247 241 245 247 249 254 263 253 258 261 259 253 246 240 254 264 269 269 264 259 255 256 256 255 256 257 259 261
238 242 244 253 252 254 257 255 252 242 243 247 250 250 249 254 256 249 248 239 248 259 248 253 255 254 259 255 241 250 245 241 237 237 243 255 271 279 278 274 265 257 255 254 254 256 256 256 258
240 242 246 249 251 252 264 265 257 247 248 247 249 249 247 252 250 237 237 236 238 242 250 252 252 251 255 253 244 240 249 241 242 253 265 272 277 276 273 270 266 262 256 252 250 251 254 257 256
243 240 249 253 256 257 258 275 270 257 248 248 247 247 247 244 245 233 228 225 234 242 253 258 257 257 255 251 249 247 246 256 267 272 268 271 270 267 266 264 262 261 258 254 251 249 250 252 253
245 243 247 253 253 255 254 274 267 264 254 243 244 244 245 242 241 232 231 231 240 246 253 256 259 257 252 256 252 252 247 255 268 268 272 275 269 262 263 265 264 263 261 258 254 249 248 251 252
240 241 246 252 249 232 251 233 265 254 252 250 246 246 245 236 238 231 230 233 238 241 246 250 260 262 251 249 249 250 247 253 263 265 275 278 276 265 259 263 269 270 265 258 256 255 247 248 253
214 221 219 226 206 229 241 223 243 261 253 259 258 249 248 233 237 229 235 239 242 237 241 250 260 264 246 245 245 247 242 250 255 266 274 281 281 276 269 264 268 269 262 257 255 252 251 246 250
224 215 202 214 216 239 236 215 242 255 248 246 270 275 235 231 232 230 238 244 247 248 241 248 259 258 255 246 244 244 239 246 250 265 274 281 281 275 269 267 267 270 260 256 252 253 250 249 250
224 220 229 250 269 278 235 241 251 248 248 247 249 254 254 235 230 235 242 246 250 247 244 250 259 247 252 246 242 240 243 239 255 262 269 285 283 278 271 270 269 268 265 260 257 254 253 251 250
233 231 234 235 241 249 244 234 232 251 252 251 251 252 258 255 242 248 242 249 255 257 254 254 238 242 244 233 228 234 236 243 254 261 266 283 280 277 273 271 270 268 269 264 259 256 255 256 256
226 226 228 239 227 228 250 244 243 250 250 251 251 263 262 262 249 245 247 258 262 254 246 238 226 237 226 216 223 235 241 249 259 266 264 275 278 279 279 275 273 274 273 273 264 262 256 256 257
237 232 224 229 237 234 239 245 236 242 254 255 242 239 255 257 258 245 259 277 253 246 235 225 226 233 226 224 238 241 247 256 260 260 265 268 273 278 279 280 282 282 276 273 272 269 264 260 258
Height
3161 3162 3164 3165 3170 3166 3166 3168 3168 3169 3170 3171 3172 3173 3174 3172 3171 3174 3171 3172 3172 3173 3175 3176 3178 3179 3181 3182 3183 3184 3184 3185 3185 3185 3186 3187 3188 3189 3190 3191 3191 3193 3194 3195 3196 3197 3197 3197 3198
3160 3162 3164 3164 3166 3164 3166 3167 3168 3170 3171 3172 3173 3174 3174 3173 3172 3172 3172 3172 3173 3174 3175 3177 3178 3180 3182 3183 3184 3185 3186 3186 3187 3187 3187 3189 3190 3191 3192 3193 3194 3195 3196 3197 3198 3199 3199 3199 3200
3159 3161 3163 3163 3164 3164 3165 3167 3169 3171 3172 3173 3173 3174 3175 3174 3174 3173 3173 3173 3174 3174 3176 3178 3179 3181 3183 3184 3185 3186 3187 3188 3188 3189 3189 3190 3191 3193 3194 3196 3197 3198 3199 3200 3200 3201 3201 3202 3202
3159 3161 3163 3163 3164 3164 3166 3167 3169 3171 3172 3173 3174 3175 3175 3175 3174 3175 3175 3174 3175 3175 3176 3178 3180 3181 3183 3184 3185 3187 3188 3189 3189 3190 3191 3192 3193 3194 3196 3198 3199 3200 3202 3202 3202 3203 3203 3203 3203
3158 3159 3160 3161 3163 3165 3165 3166 3168 3170 3172 3174 3174 3175 3175 3175 3175 3175 3176 3176 3176 3176 3177 3178 3180 3182 3184 3185 3186 3188 3189 3190 3191 3191 3193 3194 3195 3196 3197 3198 3200 3201 3202 3203 3204 3204 3204 3204 3205
3156 3157 3158 3160 3162 3164 3164 3165 3167 3169 3171 3173 3175 3175 3175 3175 3175 3176 3176 3177 3177 3177 3178 3179 3181 3182 3184 3185 3187 3189 3190 3191 3193 3194 3194 3195 3197 3198 3199 3199 3201 3202 3203 3204 3204 3205 3206 3207 3207
3153 3154 3155 3157 3160 3161 3162 3162 3165 3168 3170 3172 3174 3174 3175 3175 3176 3175 3176 3177 3178 3178 3178 3180 3182 3183 3184 3186 3187 3190 3191 3193 3194 3195 3197 3197 3198 3200 3201 3201 3202 3203 3204 3204 3205 3206 3207 3208 3209
3150 3151 3152 3154 3158 3159 3160 3160 3163 3166 3169 3171 3173 3174 3174 3174 3175 3175 3176 3177 3178 3178 3178 3180 3182 3183 3184 3185 3187 3189 3191 3193 3195 3196 3198 3198 3199 3200 3202 3202 3203 3203 3204 3206 3206 3207 3208 3209 3210
3146 3148 3148 3152 3155 3156 3157 3158 3160 3162 3165 3167 3170 3171 3173 3174 3174 3175 3175 3177 3178 3178 3178 3179 3181 3183 3185 3186 3187 3188 3191 3192 3194 3196 3198 3199 3200 3201 3202 3203 3204 3205 3205 3206 3207 3208 3209 3210 3211
3143 3142 3146 3150 3152 3153 3154 3155 3157 3161 3162 3164 3168 3170 3171 3172 3174 3174 3175 3175 3176 3177 3178 3179 3180 3183 3185 3186 3187 3188 3190 3191 3193 3195 3197 3199 3200 3202 3202 3203 3204 3205 3206 3207 3208 3208 3209 3210 3211
3137 3137 3144 3147 3148 3150 3152 3152 3152 3157 3160 3163 3166 3167 3169 3170 3172 3173 3174 3175 3175 3176 3177 3179 3180 3182 3184 3186 3187 3188 3189 3190 3192 3194 3196 3198 3199 3201 3202 3203 3204 3205 3206 3206 3207 3208 3208 3208 3210
3132 3135 3140 3144 3145 3146 3148 3150 3151 3152 3158 3161 3163 3165 3166 3168 3170 3172 3173 3174 3174 3176 3177 3178 3180 3182 3183 3185 3186 3188 3189 3190 3191 3192 3194 3195 3198 3199 3201 3202 3203 3204 3205 3205 3206 3207 3208 3209 3209
3125 3130 3134 3138 3140 3142 3143 3146 3148 3150 3153 3156 3159 3161 3164 3165 3167 3169 3171 3172 3173 3175 3175 3177 3179 3181 3183 3184 3185 3186 3188 3189 3190 3191 3192 3193 3195 3197 3198 3200 3201 3202 3203 3204 3204 3205 3206 3207 3207
3120 3124 3128 3132 3135 3138 3140 3143 3142 3148 3149 3152 3155 3157 3160 3163 3165 3167 3167 3169 3172 3172 3174 3175 3177 3179 3181 3182 3183 3185 3186 3188 3189 3190 3191 3192 3193 3194 3195 3197 3198 3200 3201 3202 3202 3203 3203 3204 3205
3116 3118 3120 3123 3127 3132 3135 3136 3135 3145 3146 3147 3150 3153 3155 3159 3160 3162 3165 3167 3169 3171 3172 3173 3175 3176 3178 3179 3181 3182 3184 3185 3186 3187 3189 3190 3191 3192 3192 3193 3194 3196 3197 3198 3199 3199 3200 3200 3202
3112 3113 3113 3115 3121 3125 3130 3124 3132 3140 3140 3142 3145 3148 3150 3153 3156 3159 3161 3162 3165 3166 3168 3170 3172 3173 3175 3176 3177 3178 3180 3182 3183 3184 3185 3186 3187 3189 3189 3190 3191 3192 3192 3193 3194 3195 3196 3197 3198
3106 3103 3105 3110 3115 3118 3121 3118 3126 3133 3134 3137 3139 3142 3144 3146 3148 3152 3155 3157 3159 3162 3164 3165 3168 3169 3171 3172 3173 3174 3176 3177 3179 3180 3181 3182 3183 3184 3185 3186 3187 3187 3187 3188 3189 3190 3191 3192 3192
3093 3096 3100 3104 3110 3113 3113 3113 3121 3125 3127 3131 3133 3136 3137 3139 3141 3145 3148 3149 3153 3155 3158 3160 3162 3164 3165 3165 3166 3168 3170 3172 3173 3175 3176 3177 3178 3179 3179 3180 3181 3182 3182 3183 3183 3184 3185 3187 3187
3091 3093 3096 3099 3105 3107 3106 3106 3112 3118 3118 3119 3124 3129 3131 3133 3137 3138 3140 3143 3143 3147 3150 3153 3155 3158 3159 3159 3161 3163 3164 3167 3168 3170 3171 3173 3173 3173 3173 3174 3175 3176 3176 3178 3178 3178 3179 3179 3181
3086 3088 3090 3095 3098 3101 3099 3097 3101 3106 3106 3109 3114 3118 3123 3126 3129 3131 3134 3136 3138 3140 3143 3146 3149 3150 3153 3154 3155 3157 3159 3160 3163 3164 3166 3167 3167 3167 3167 3166 3167 3168 3169 3171 3172 3173 3173 3174 3173
3079 3080 3085 3090 3093 3095 3093 3087 3089 3096 3098 3101 3103 3108 3113 3117 3122 3125 3127 3131 3133 3134 3136 3139 3143 3144 3146 3149 3150 3151 3153 3155 3156 3158 3159 3160 3161 3161 3160 3160 3160 3160 3161 3162 3164 3166 3166 3168 3168
3070 3077 3083 3085 3090 3088 3092 3082 3079 3084 3087 3091 3093 3099 3103 3108 3113 3117 3121 3122 3126 3129 3131 3133 3135 3137 3140 3141 3143 3145 3147 3149 3151 3152 3153 3153 3154 3154 3153 3152 3152 3152 3153 3153 3155 3158 3159 3159 3161
3063 3075 3079 3080 3082 3086 3087 3088 3063 3072 3073 3077 3084 3090 3095 3100 3105 3109 3114 3116 3119 3121 3123 3125 3127 3129 3132 3134 3136 3138 3140 3143 3144 3145 3145 3145 3146 3146 3145 3144 3144 3145 3145 3146 3147 3148 3151 3152 3152
3065 3071 3074 3074 3077 3077 3070 3084 3042 3060 3060 3069 3077 3082 3088 3094 3097 3102 3107 3108 3111 3113 3116 3117 3118 3120 3123 3125 3128 3130 3134 3136 3137 3138 3138 3138 3138 3138 3137 3137 3136 3137 3136 3138 3139 3140 3142 3143 3145
3061 3065 3067 3068 3068 3056 3060 3069 3045 3048 3055 3062 3068 3075 3080 3087 3090 3095 3098 3100 3103 3105 3108 3109 3110 3111 3113 3116 3119 3122 3126 3128 3130 3131 3131 3131 3130 3130 3131 3130 3129 3128 3129 3130 3131 3131 3133 3135 3136
3049 3054 3051 3053 3052 3044 3056 3050 3032 3046 3058 3059 3061 3065 3069 3076 3082 3087 3090 3092 3094 3097 3099 3100 3102 3104 3105 3108 3112 3115 3118 3120 3123 3124 3124 3124 3123 3123 3123 3123 3122 3122 3121 3122 3123 3123 3124 3125 3127
3041 3046 3044 3049 3047 3045 3041 3041 3041 3042 3047 3052 3057 3062 3065 3068 3072 3078 3080 3082 3084 3086 3089 3091 3094 3095 3097 3100 3103 3106 3109 3112 3115 3116 3117 3117 3116 3116 3116 3115 3115 3115 3114 3115 3115 3115 3116 3117 3118
3033 3041 3045 3046 3043 3044 3034 3032 3031 3034 3037 3044 3050 3054 3060 3065 3067 3069 3071 3073 3073 3074 3077 3080 3085 3087 3088 3092 3095 3099 3102 3104 3106 3108 3109 3109 3109 3109 3109 3108 3108 3107 3107 3107 3107 3107 3109 3110 3111
3025 3027 3033 3035 3033 3034 3030 3024 3029 3031 3036 3039 3043 3048 3053 3055 3058 3060 3062 3063 3061 3061 3064 3070 3075 3078 3080 3084 3088 3091 3094 3096 3099 3101 3102 3103 3102 3102 3102 3102 3101 3100 3100 3100 3100 3100 3101 3101 3102
3016 3015 3022 3021 3022 3022 3021 3013 3025 3029 3033 3035 3038 3040 3044 3046 3047 3051 3053 3052 3051 3052 3055 3061 3066 3069 3072 3077 3081 3083 3086 3089 3092 3094 3095 3096 3096 3096 3096 3094 3094 3094 3093 3092 3092 3092 3092 3092 3093